Location: Bambrugge
(50.9212°N, 3.9299°E)
Time: 21:58:31
(UTC+00:00)

SL-16 R/B - Pass Details

Date: 16 August 2024
Orbit: 842 x 845 km, 71.0° (Epoch: 10 September)

Event Time Altitude Azimuth Distance (km) Brightness Sun altitude
Exits shadow 23:15:55 48° 235° (SW) 1,089 2.5 -25.4°
Maximum altitude 23:17:26 71° 302° (WNW) 894 2.3 -25.4°
Drops below altitude 10° 23:23:07 10° 27° (NNE) 2,477 5.3 -25.5°
Sets 23:25:36 0° 30° (NNE) 3,416 6.2 -25.6°
